• Processing (Info)

  • MPEC 2015-T86 : 2015 TB145

    The following Minor Planet Electronic Circular may be linked-to from your own Web pages, but must not otherwise be redistributed electronically.

    A form allowing access to any MPEC is at the bottom of this page.


    Read MPEC 2015-T85 Read MPEC 2015-T87


    M.P.E.C. 2015-T86                                Issued 2015 Oct. 13, 14:28 UT
    
         The Minor Planet Electronic Circulars contain information on unusual
             minor planets and routine data on comets.  They are published
        on behalf of Division F of the International Astronomical Union by the
              Minor Planet Center, Smithsonian Astrophysical Observatory,
                              Cambridge, MA 02138, U.S.A.
    
                 Prepared using the Tamkin Foundation Computer Network
    
                                  MPC@CFA.HARVARD.EDU
                URL http://www.minorplanetcenter.net/    ISSN 1523-6714
    
                                      2015 TB145
    
    Observations:
         K15TE5B* C2015 10 10.53168 04 12 32.117-02 04 49.71         20.0 wLET086F51
         K15TE5B  C2015 10 10.54274 04 12 32.388-02 04 50.40         20.1 wLET086F51
         K15TE5B  C2015 10 10.55385 04 12 32.660-02 04 50.98         20.0 wLET086F51
         K15TE5B  C2015 10 10.56496 04 12 32.927-02 04 51.64         19.9 wLET086F51
         K15TE5B KC2015 10 11.03485 04 12 48.90 -02 05 20.8          19.0 RtET086J04
         K15TE5B KC2015 10 11.03816 04 12 48.99 -02 05 20.9          19.1 RtET086J04
         K15TE5B KC2015 10 11.04146 04 12 49.08 -02 05 21.0          19.1 RtET086J04
         K15TE5B  C2015 10 11.33472104 12 57.34 -02 05 16.9          19.8 RqET086W85
         K15TE5B  C2015 10 11.33824704 12 57.42 -02 05 16.9          19.7 RqET086W85
         K15TE5B  C2015 10 11.34177204 12 57.50 -02 05 17.4          19.9 RqET086W85
         K15TE5B  C2015 10 11.34529704 12 57.59 -02 05 17.5          19.8 RqET086W85
         K15TE5B KC2015 10 12.10429 04 13 21.33 -02 06 23.5          19.8 RqET086K62
         K15TE5B KC2015 10 12.11291 04 13 21.52 -02 06 23.5          19.6 RqET086K62
         K15TE5B KC2015 10 12.12204 04 13 21.75 -02 06 23.9          19.9 RqET086K62
         K15TE5B  C2015 10 12.18910904 13 24.96 -02 05 59.3          19.2 RtET086W86
         K15TE5B  C2015 10 12.19213904 13 25.04 -02 05 59.3          19.2 RtET086W86
         K15TE5B  C2015 10 12.19515704 13 25.11 -02 05 59.4          19.2 RtET086W86
         K15TE5B  C2015 10 12.19817704 13 25.19 -02 05 59.6          19.3 RtET086W86
         K15TE5B _C2015 10 12.60465304 13 36.279-02 06 37.07         19.5 RtET086568
         K15TE5B _C2015 10 12.60571604 13 36.302-02 06 37.14         19.4 RtET086568
         K15TE5B _C2015 10 12.60681304 13 36.328-02 06 37.19         19.4 RtET086568
         K15TE5B KC2015 10 12.80802 04 13 43.06 -02 06 53.7          19.7 RqET086O75
         K15TE5B KC2015 10 12.82020 04 13 43.38 -02 06 55.2          19.6 RqET086O75
         K15TE5B KC2015 10 12.83434 04 13 43.61 -02 06 55.8          19.2 RqET086O75
         K15TE5B KC2015 10 12.84747 04 13 43.91 -02 06 57.5          19.3 RqET086O75
         K15TE5B  C2015 10 12.92901904 13 47.50 -02 06 30.8          19.4 RtET086K91
         K15TE5B  C2015 10 12.93227704 13 47.58 -02 06 30.9          19.3 RtET086K91
         K15TE5B  C2015 10 12.93540604 13 47.66 -02 06 31.0          19.4 RtET086K91
         K15TE5B  C2015 10 12.93858704 13 47.74 -02 06 31.2          19.5 RtET086K91
         K15TE5B KC2015 10 13.09801 04 13 51.61 -02 07 07.3          19.3 RqET086A17
         K15TE5B KC2015 10 13.10971 04 13 51.91 -02 07 08.0          19.0 RqET086A17
         K15TE5B KC2015 10 13.12161 04 13 52.24 -02 07 09.5                qET086A17
         K15TE5B  C2015 10 13.37333 04 14 00.20 -02 07 13.2          19.5 RqET086H15
         K15TE5B  C2015 10 13.37690 04 14 00.22 -02 07 13.3          19.2 RqET086H15
         K15TE5B  C2015 10 13.38402 04 14 00.41 -02 07 13.8          19.9 RqET086H15
         K15TE5B AC2015 10 13.49361 04 14 02.72 -02 07 17.5          20.1  uET086H06
         K15TE5B AC2015 10 13.50056 04 14 02.91 -02 07 17.0          20.2  uET086H06
    
    Observer details:
    568 Mauna Kea.  Observers R. J. Wainscoat, C. Wipper.  Measurers M. Micheli,
        R. Weryk.  3.6-m Canada-France-Hawaii Telescope + CCD.
    A17 Guidestar Observatory, Weinheim.  Observers M. Emmerich, S. Melchert.
        0.36-m f/6 Schmidt-Cassegrain + CCD.
    F51 Pan-STARRS 1, Haleakala.  Observers B. Gibson, T. Goggia, N. Primak,
        A. Schultz, M. Willman.  Measurers K. Chambers, S. Chastel, L. Denneau,
        H. Flewelling, M. Huber, E. Lilly, E. Magnier, R. Wainscoat, C. Waters,
        R. Weryk.  1.8-m Ritchey-Chretien + CCD.
    H06 iTelescope Observatory, Mayhill.  Observer M. Urbanik.  0.43-m f/6.8
        astrograph + CCD.
    H15 ISON-NM Observatory, Mayhill.  Observer L. Elenin.  0.4-m f/3 reflector
        + CCD.
    J04 ESA Optical Ground Station, Tenerife.  Observer P. Ruiz.  Measurers
        A. Knoefel, D. Koschny, M. Busch, M. Micheli, E. Schwab.  1.0-m f/4.4
        reflector + CCD.
    K62 Teplice Observatory.  Observer Z. Moravec.  0.43-m f/4.6 reflector + CCD.
    K91 Sutherland-LCOGT A.  Observers T. Lister, S. Greenstreet, E. Gomez.
        Measurer T. Lister.  1.0-m f/8 Ritchey-Chretien + CCD.
    O75 ISON-Hureltogoot Observatory.  Observers S. Schmalz, N. Tungalag.
        Measurer S. Schmalz.  0.4-m f/2.3 reflector + CCD.
    W85 Cerro Tololo-LCOGT A.  Observers T. Lister, S. Greenstreet, E. Gomez.
        Measurer T. Lister.  1.0-m f/8 Ritchey-Chretien + CCD.
    W86 Cerro Tololo-LCOGT B.  Observers T. Lister, S. Greenstreet, E. Gomez.
        Measurer T. Lister.  1.0-m f/8 Ritchey-Chretien + CCD.
    
    Orbital elements:
    2015 TB145                                          PHA, Earth MOID = 0.0015 AU
    Epoch 2016 Jan. 13.0 TT = JDT 2457400.5                 MPC
    M  10.46427              (2000.0)            P               Q
    n   0.32196634     Peri.  121.80599     -0.81599239     -0.42543689
    a   2.1082838      Node    37.66315     -0.03796948     -0.63610560
    e   0.8612742      Incl.   39.82904     +0.57681430     -0.64371820
    P   3.06           H   19.8           G   0.15           U   8
    Residuals in seconds of arc
    151010 F51  0.0   0.0     151012 K62  0.1-  0.1+    151012 K91  0.3-  0.0
    151010 F51  0.0   0.0     151012 W86  0.1-  0.1-    151012 K91  0.2-  0.0
    151010 F51  0.1+  0.0     151012 W86  0.1-  0.1+    151012 K91  0.2-  0.1-
    151010 F51  0.0   0.0     151012 W86  0.1-  0.1+    151013 A17  0.1-  0.1+
    151011 J04  0.1-  0.1-    151012 W86  0.1-  0.1+    151013 A17  0.2+  0.1-
    151011 J04  0.1-  0.0     151012 568  0.1-  0.0     151013 A17  1.0+  1.2-
    151011 J04  0.0   0.1+    151012 568  0.1-  0.0     151013 H15  0.5+  0.0
    151011 W85  0.1-  0.0     151012 568  0.0   0.0     151013 H15  0.4-  0.0
    151011 W85  0.2-  0.1+    151012 O75  0.9+  1.1+    151013 H15  0.1+  0.2-
    151011 W85  0.3-  0.2-    151012 O75  1.3+  0.2+    151013 H06  0.8-  0.1+
    151011 W85  0.2-  0.1-    151012 O75  0.3-  0.2+    151013 H06  0.3-  0.8+
    151012 K62  0.3+  0.3-    151012 O75  0.4-  1.0-
    151012 K62  0.1-  0.1+    151012 K91  0.3-  0.1-
    
    Ephemeris:
    2015 TB145               a,e,i = 2.11, 0.86, 40                  q = 0.2925
    Date    TT    R. A. (2000) Decl.     Delta      r     Elong.  Phase     V
    2015 09 13    03 52 45.3 -01 36 24   1.0353  1.6965   112.4    33.3    22.4
    ...
    2015 09 28    04 04 40.8 -01 49 39   0.7021  1.5027   122.7    34.1    21.3
    ...
    2015 10 06    04 09 56.9 -01 59 36   0.5295  1.3918   128.3    34.3    20.6
    ...
    2015 10 12    04 13 18.2 -02 06 00   0.4025  1.3047   132.6    34.3    19.8
    2015 10 13    04 13 48.7 -02 06 45   0.3816  1.2899   133.3    34.3    19.7
    2015 10 14    04 14 18.3 -02 07 20   0.3607  1.2749   134.0    34.2    19.5
    ...
    2015 10 20    04 17 03.2 -02 05 13   0.2365  1.1830   138.3    34.1    18.5
    ...
    2015 10 28    04 22 38.7 -00 49 57   0.07360 1.0540   143.7    33.9    15.7
    ...
    2015 11 12    16 13 38.4 +03 05 54   0.2318  0.7892    26.4   146.1    23.9
    
    A. U. Tomatic                (C) Copyright 2015 MPC           M.P.E.C. 2015-T86
    

    Read MPEC 2015-T85 Read MPEC 2015-T87


    MPEC number:

    Enter an MPEC number in one of the following forms:

    • 1997-B01 (the full form)
    • J97B01 (the packed version of the full form)
    • B01 (the abbreviated form)